Time,TemperatureF,DewpointF,PressureIn,WindDirection,WindDirectionDegrees,WindSpeedMPH,WindSpeedGustMPH,Humidity,HourlyPrecipIn,Conditions,Clouds,dailyrainin,SolarRadiationWatts/m^2,SoftwareType,DateUTC
2013-07-21 00:02:00,67.0,58.0,29.87,North,360,1.0,-999.0,74,-99.99,,,-99.99,0.000000,,2013-07-21 05:02:00,
2013-07-21 00:11:00,67.0,58.0,29.87,North,360,1.0,-999.0,74,-99.99,,,-99.99,0.000000,,2013-07-21 05:11:00,
2013-07-21 00:22:00,67.0,59.0,29.87,North,360,0.0,-999.0,75,-99.99,,,-99.99,0.000000,,2013-07-21 05:22:00,
2013-07-21 00:32:00,66.0,57.0,29.88,North,360,0.0,-999.0,74,-99.99,,,-99.99,0.000000,,2013-07-21 05:32:00,
2013-07-21 00:42:00,66.0,57.0,29.88,North,360,0.0,-999.0,74,-99.99,,,-99.99,0.000000,,2013-07-21 05:42:00,
2013-07-21 00:52:00,66.0,58.0,29.87,North,360,1.0,-999.0,75,-99.99,,,-99.99,0.000000,,2013-07-21 05:52:00,
2013-07-21 01:01:00,66.0,58.0,29.85,North,360,1.0,-999.0,75,-99.99,,,-99.99,0.000000,,2013-07-21 06:01:00,
2013-07-21 01:11:00,66.0,58.0,29.85,North,360,1.0,-999.0,75,-99.99,,,-99.99,0.000000,,2013-07-21 06:11:00,
2013-07-21 01:22:00,66.0,58.0,29.85,North,360,1.0,-999.0,75,-99.99,,,-99.99,0.000000,,2013-07-21 06:22:00,
2013-07-21 01:32:00,66.0,58.0,29.85,North,360,1.0,-999.0,75,-99.99,,,-99.99,0.000000,,2013-07-21 06:32:00,
2013-07-21 01:42:00,66.0,58.0,29.85,North,360,1.0,-999.0,75,-99.99,,,-99.99,0.000000,,2013-07-21 06:42:00,
2013-07-21 01:52:00,65.0,57.0,29.85,NNE,26,3.0,-999.0,75,-99.99,,,-99.99,0.000000,,2013-07-21 06:52:00,
2013-07-21 02:01:00,65.0,58.0,29.85,NE,34,1.0,-999.0,77,-99.99,,,-99.99,0.000000,,2013-07-21 07:01:00,
2013-07-21 02:11:00,65.0,58.0,29.85,NE,34,1.0,-999.0,77,-99.99,,,-99.99,0.000000,,2013-07-21 07:11:00,
2013-07-21 02:22:00,65.0,58.0,29.85,NE,34,2.0,-999.0,77,-99.99,,,-99.99,0.000000,,2013-07-21 07:22:00,
2013-07-21 02:32:00,65.0,58.0,29.85,NE,34,2.0,-999.0,77,-99.99,,,-99.99,0.000000,,2013-07-21 07:32:00,
2013-07-21 02:43:00,65.0,58.0,29.85,NNE,33,0.0,-999.0,78,-99.99,,,-99.99,0.000000,,2013-07-21 07:43:00,
2013-07-21 02:53:00,64.0,58.0,29.85,NE,34,0.0,-999.0,80,-99.99,,,-99.99,0.000000,,2013-07-21 07:53:00,
2013-07-21 03:01:00,64.0,58.0,29.85,NE,34,0.0,-999.0,80,-99.99,,,-99.99,0.000000,,2013-07-21 08:01:00,
2013-07-21 03:11:00,64.0,57.0,29.85,NNE,33,1.0,-999.0,79,-99.99,,,-99.99,0.000000,,2013-07-21 08:11:00,
2013-07-21 03:22:00,64.0,58.0,29.84,NE,34,1.0,-999.0,80,-99.99,,,-99.99,0.000000,,2013-07-21 08:22:00,
2013-07-21 03:33:00,64.0,58.0,29.84,NE,34,1.0,-999.0,80,-99.99,,,-99.99,0.000000,,2013-07-21 08:33:00,
2013-07-21 03:43:00,64.0,58.0,29.84,NE,34,0.0,-999.0,81,-99.99,,,-99.99,0.000000,,2013-07-21 08:43:00,
2013-07-21 03:52:00,64.0,58.0,29.84,NNE,33,0.0,-999.0,82,-99.99,,,-99.99,0.000000,,2013-07-21 08:52:00,
2013-07-21 04:02:00,64.0,58.0,29.84,NNE,33,0.0,-999.0,82,-99.99,,,-99.99,0.000000,,2013-07-21 09:02:00,
2013-07-21 04:12:00,63.0,58.0,29.85,NE,34,0.0,-999.0,84,-99.99,,,-99.99,0.000000,,2013-07-21 09:12:00,
2013-07-21 04:22:00,64.0,59.0,29.84,NE,34,0.0,-999.0,84,-99.99,,,-99.99,0.000000,,2013-07-21 09:22:00,
2013-07-21 04:32:00,64.0,59.0,29.84,NE,34,0.0,-999.0,84,-99.99,,,-99.99,0.000000,,2013-07-21 09:32:00,
2013-07-21 04:42:00,64.0,59.0,29.83,NNE,33,0.0,-999.0,83,-99.99,,,-99.99,0.000000,,2013-07-21 09:42:00,
2013-07-21 04:52:00,64.0,59.0,29.83,NE,34,1.0,-999.0,83,-99.99,,,-99.99,0.000000,,2013-07-21 09:52:00,
2013-07-21 05:01:00,64.0,59.0,29.83,NE,34,1.0,-999.0,83,-99.99,,,-99.99,0.000000,,2013-07-21 10:01:00,
2013-07-21 05:11:00,64.0,58.0,29.83,NNE,33,0.0,-999.0,82,-99.99,,,-99.99,0.000000,,2013-07-21 10:11:00,
2013-07-21 05:22:00,64.0,59.0,29.83,NE,34,1.0,-999.0,83,-99.99,,,-99.99,0.000000,,2013-07-21 10:22:00,
2013-07-21 05:32:00,64.0,59.0,29.83,NE,34,1.0,-999.0,83,-99.99,,,-99.99,0.000000,,2013-07-21 10:32:00,
2013-07-21 05:43:00,63.0,58.0,29.83,NE,34,1.0,-999.0,84,-99.99,,,-99.99,0.000000,,2013-07-21 10:43:00,
2013-07-21 05:52:00,63.0,58.0,29.83,NE,34,0.0,-999.0,84,-99.99,,,-99.99,0.000000,,2013-07-21 10:52:00,
2013-07-21 06:02:00,63.0,58.0,29.83,NE,34,0.0,-999.0,84,-99.99,,,-99.99,0.000000,,2013-07-21 11:02:00,
2013-07-21 06:12:00,63.0,58.0,29.83,NE,34,0.0,-999.0,85,-99.99,,,-99.99,0.000000,,2013-07-21 11:12:00,
2013-07-21 06:22:00,63.0,58.0,29.82,NE,34,0.0,-999.0,85,-99.99,,,-99.99,7.000000,,2013-07-21 11:22:00,
2013-07-21 06:32:00,63.0,58.0,29.82,NE,34,0.0,-999.0,85,-99.99,,,-99.99,7.000000,,2013-07-21 11:32:00,
2013-07-21 06:43:00,63.0,58.0,29.82,NE,34,1.0,-999.0,84,-99.99,,,-99.99,18.000000,,2013-07-21 11:43:00,
2013-07-21 06:52:00,63.0,58.0,29.82,NE,37,2.0,-999.0,85,-99.99,,,-99.99,23.000000,,2013-07-21 11:52:00,
2013-07-21 07:01:00,63.0,58.0,29.82,NE,37,2.0,-999.0,85,-99.99,,,-99.99,23.000000,,2013-07-21 12:01:00,
2013-07-21 07:11:00,63.0,58.0,29.82,NE,37,2.0,-999.0,85,-99.99,,,-99.99,62.000000,,2013-07-21 12:11:00,
2013-07-21 07:22:00,63.0,58.0,29.83,NE,39,4.0,-999.0,84,-99.99,,,-99.99,83.000000,,2013-07-21 12:22:00,
2013-07-21 07:32:00,63.0,58.0,29.83,NE,39,4.0,-999.0,84,-99.99,,,-99.99,83.000000,,2013-07-21 12:32:00,
2013-07-21 07:43:00,63.0,58.0,29.83,NE,38,3.0,-999.0,85,-99.99,,,-99.99,83.000000,,2013-07-21 12:43:00,
2013-07-21 07:53:00,63.0,58.0,29.83,NE,38,3.0,-999.0,85,-99.99,,,-99.99,83.000000,,2013-07-21 12:53:00,
2013-07-21 08:01:00,64.0,59.0,29.83,NE,42,5.0,-999.0,84,-99.99,,,-99.99,225.000000,,2013-07-21 13:01:00,
2013-07-21 08:12:00,64.0,58.0,29.83,NE,42,1.0,-999.0,82,-99.99,,,-99.99,139.000000,,2013-07-21 13:12:00,
2013-07-21 08:22:00,64.0,58.0,29.83,NE,42,1.0,-999.0,82,-99.99,,,-99.99,139.000000,,2013-07-21 13:22:00,
2013-07-21 08:32:00,65.0,59.0,29.83,NE,46,4.0,-999.0,82,-99.99,,,-99.99,255.000000,,2013-07-21 13:32:00,
2013-07-21 08:42:00,66.0,60.0,29.83,NE,55,5.0,-999.0,81,-99.99,,,-99.99,313.000000,,2013-07-21 13:42:00,
2013-07-21 08:52:00,66.0,60.0,29.83,NE,55,5.0,-999.0,81,-99.99,,,-99.99,313.000000,,2013-07-21 13:52:00,
2013-07-21 09:01:00,67.0,60.0,29.82,ENE,66,6.0,-999.0,79,-99.99,,,-99.99,360.000000,,2013-07-21 14:01:00,
2013-07-21 09:12:00,68.0,61.0,29.82,ENE,67,5.0,-999.0,79,-99.99,,,-99.99,406.000000,,2013-07-21 14:12:00,
2013-07-21 09:22:00,68.0,61.0,29.82,ENE,67,5.0,-999.0,79,-99.99,,,-99.99,406.000000,,2013-07-21 14:22:00,
2013-07-21 09:32:00,69.0,61.0,29.83,East,80,7.0,-999.0,77,-99.99,,,-99.99,452.000000,,2013-07-21 14:32:00,
2013-07-21 09:43:00,70.0,62.0,29.83,East,81,4.0,-999.0,76,-99.99,,,-99.99,497.000000,,2013-07-21 14:43:00,
2013-07-21 09:53:00,70.0,62.0,29.83,East,81,4.0,-999.0,76,-99.99,,,-99.99,497.000000,,2013-07-21 14:53:00,
2013-07-21 10:02:00,71.0,63.0,29.83,East,80,4.0,-999.0,75,-99.99,,,-99.99,541.000000,,2013-07-21 15:02:00,
2013-07-21 10:11:00,73.0,64.0,29.83,East,80,2.0,-999.0,74,-99.99,,,-99.99,390.000000,,2013-07-21 15:11:00,
2013-07-21 10:22:00,73.0,64.0,29.83,East,80,2.0,-999.0,74,-99.99,,,-99.99,390.000000,,2013-07-21 15:22:00,
2013-07-21 10:32:00,73.0,64.0,29.83,East,81,2.0,-999.0,74,-99.99,,,-99.99,260.000000,,2013-07-21 15:32:00,
2013-07-21 10:42:00,72.0,64.0,29.83,East,81,1.0,-999.0,75,-99.99,,,-99.99,396.000000,,2013-07-21 15:42:00,
2013-07-21 10:53:00,72.0,64.0,29.83,East,81,1.0,-999.0,75,-99.99,,,-99.99,396.000000,,2013-07-21 15:53:00,
2013-07-21 11:01:00,74.0,65.0,29.82,East,80,2.0,-999.0,73,-99.99,,,-99.99,394.000000,,2013-07-21 16:01:00,
2013-07-21 11:11:00,76.0,65.0,29.82,East,83,4.0,-999.0,70,-99.99,,,-99.99,798.000000,,2013-07-21 16:11:00,
2013-07-21 11:22:00,76.0,65.0,29.82,East,83,4.0,-999.0,70,-99.99,,,-99.99,798.000000,,2013-07-21 16:22:00,
2013-07-21 11:32:00,77.0,66.0,29.81,East,86,4.0,-999.0,69,-99.99,,,-99.99,780.000000,,2013-07-21 16:32:00,
2013-07-21 11:43:00,77.0,66.0,29.81,East,88,5.0,-999.0,68,-99.99,,,-99.99,821.000000,,2013-07-21 16:43:00,
2013-07-21 11:52:00,77.0,66.0,29.81,East,88,5.0,-999.0,68,-99.99,,,-99.99,821.000000,,2013-07-21 16:52:00,
2013-07-21 12:02:00,78.0,66.0,29.81,East,93,5.0,-999.0,67,-99.99,,,-99.99,840.000000,,2013-07-21 17:02:00,
2013-07-21 12:11:00,79.0,67.0,29.80,East,95,5.0,-999.0,66,-99.99,,,-99.99,874.000000,,2013-07-21 17:11:00,
2013-07-21 12:22:00,79.0,67.0,29.80,East,95,5.0,-999.0,66,-99.99,,,-99.99,874.000000,,2013-07-21 17:22:00,
2013-07-21 12:33:00,79.0,67.0,29.79,ESE,106,6.0,-999.0,67,-99.99,,,-99.99,909.000000,,2013-07-21 17:33:00,
2013-07-21 12:42:00,79.0,67.0,29.79,ESE,106,6.0,-999.0,67,-99.99,,,-99.99,909.000000,,2013-07-21 17:42:00,
2013-07-21 12:53:00,79.0,67.0,29.79,North,360,5.0,-999.0,66,-99.99,,,-99.99,629.000000,,2013-07-21 17:53:00,
2013-07-21 13:01:00,80.0,66.0,29.78,North,360,7.0,-999.0,63,-99.99,,,-99.99,990.000000,,2013-07-21 18:01:00,
2013-07-21 13:11:00,80.0,66.0,29.78,North,360,7.0,-999.0,63,-99.99,,,-99.99,990.000000,,2013-07-21 18:11:00,
2013-07-21 13:22:00,80.0,67.0,29.78,ESE,111,4.0,-999.0,65,-99.99,,,-99.99,810.000000,,2013-07-21 18:22:00,
2013-07-21 13:32:00,81.0,67.0,29.78,North,360,5.0,-999.0,63,-99.99,,,-99.99,387.000000,,2013-07-21 18:32:00,
2013-07-21 13:43:00,81.0,67.0,29.78,North,360,5.0,-999.0,63,-99.99,,,-99.99,387.000000,,2013-07-21 18:43:00,
2013-07-21 13:52:00,81.0,67.0,29.78,ESE,107,4.0,-999.0,62,-99.99,,,-99.99,837.000000,,2013-07-21 18:52:00,
2013-07-21 14:01:00,81.0,67.0,29.77,ESE,108,4.0,-999.0,62,-99.99,,,-99.99,190.000000,,2013-07-21 19:01:00,
2013-07-21 14:11:00,81.0,67.0,29.77,ESE,108,4.0,-999.0,62,-99.99,,,-99.99,190.000000,,2013-07-21 19:11:00,
2013-07-21 14:22:00,82.0,68.0,29.77,North,360,3.0,-999.0,63,-99.99,,,-99.99,,,2013-07-21 19:22:00,
2013-07-21 14:32:00,81.0,67.0,29.76,ESE,111,4.0,-999.0,62,-99.99,,,-99.99,316.000000,,2013-07-21 19:32:00,
2013-07-21 14:42:00,81.0,67.0,29.76,ESE,111,4.0,-999.0,62,-99.99,,,-99.99,316.000000,,2013-07-21 19:42:00,
2013-07-21 14:52:00,81.0,66.0,29.76,North,360,5.0,-999.0,61,-99.99,,,-99.99,,,2013-07-21 19:52:00,
2013-07-21 15:01:00,83.0,67.0,29.76,North,360,5.0,-999.0,59,-99.99,,,-99.99,,,2013-07-21 20:01:00,
2013-07-21 15:11:00,83.0,67.0,29.76,North,360,5.0,-999.0,59,-99.99,,,-99.99,,,2013-07-21 20:11:00,
2013-07-21 15:22:00,83.0,68.0,29.75,North,360,3.0,-999.0,60,-99.99,,,-99.99,,,2013-07-21 20:22:00,
2013-07-21 15:32:00,82.0,67.0,29.75,SE,133,3.0,-999.0,60,-99.99,,,-99.99,926.000000,,2013-07-21 20:32:00,
2013-07-21 15:42:00,82.0,67.0,29.75,SE,133,3.0,-999.0,60,-99.99,,,-99.99,926.000000,,2013-07-21 20:42:00,
2013-07-21 15:52:00,82.0,67.0,29.75,SE,133,3.0,-999.0,60,-99.99,,,-99.99,926.000000,,2013-07-21 20:52:00,
2013-07-21 16:01:00,82.0,67.0,29.74,North,360,1.0,-999.0,60,-99.99,,,-99.99,991.000000,,2013-07-21 21:01:00,
2013-07-21 16:11:00,82.0,67.0,29.74,North,360,1.0,-999.0,60,-99.99,,,-99.99,991.000000,,2013-07-21 21:11:00,
2013-07-21 16:22:00,84.0,68.0,29.74,North,360,6.0,-999.0,59,-99.99,,,-99.99,935.000000,,2013-07-21 21:22:00,
2013-07-21 16:32:00,85.0,66.0,29.74,SE,138,5.0,-999.0,54,-99.99,,,-99.99,879.000000,,2013-07-21 21:32:00,
2013-07-21 16:43:00,85.0,66.0,29.74,SE,138,5.0,-999.0,54,-99.99,,,-99.99,879.000000,,2013-07-21 21:43:00,
2013-07-21 16:52:00,85.0,67.0,29.73,SSE,152,6.0,-999.0,55,-99.99,,,-99.99,786.000000,,2013-07-21 21:52:00,
2013-07-21 17:01:00,84.0,66.0,29.72,SE,140,5.0,-999.0,54,-99.99,,,-99.99,726.000000,,2013-07-21 22:01:00,
2013-07-21 17:11:00,84.0,66.0,29.72,SE,140,5.0,-999.0,54,-99.99,,,-99.99,726.000000,,2013-07-21 22:11:00,
2013-07-21 17:22:00,84.0,68.0,29.72,SE,133,4.0,-999.0,58,-99.99,,,-99.99,679.000000,,2013-07-21 22:22:00,
2013-07-21 17:32:00,82.0,67.0,29.72,North,360,5.0,-999.0,60,-99.99,,,-99.99,206.000000,,2013-07-21 22:32:00,
2013-07-21 17:42:00,82.0,67.0,29.72,North,360,5.0,-999.0,60,-99.99,,,-99.99,206.000000,,2013-07-21 22:42:00,
2013-07-21 17:52:00,84.0,68.0,29.71,North,360,4.0,-999.0,58,-99.99,,,-99.99,612.000000,,2013-07-21 22:52:00,
2013-07-21 18:01:00,84.0,68.0,29.71,North,360,4.0,-999.0,58,-99.99,,,-99.99,612.000000,,2013-07-21 23:01:00,
2013-07-21 18:11:00,83.0,68.0,29.71,North,360,4.0,-999.0,61,-99.99,,,-99.99,578.000000,,2013-07-21 23:11:00,
2013-07-21 18:22:00,83.0,68.0,29.70,North,360,6.0,-999.0,61,-99.99,,,-99.99,490.000000,,2013-07-21 23:22:00,
2013-07-21 18:32:00,83.0,68.0,29.70,North,360,6.0,-999.0,61,-99.99,,,-99.99,490.000000,,2013-07-21 23:32:00,
2013-07-21 18:42:00,83.0,69.0,29.69,North,360,3.0,-999.0,62,-99.99,,,-99.99,415.000000,,2013-07-21 23:42:00,
2013-07-21 18:52:00,82.0,69.0,29.68,North,360,5.0,-999.0,64,-99.99,,,-99.99,385.000000,,2013-07-21 23:52:00,
2013-07-21 19:01:00,82.0,69.0,29.68,North,360,5.0,-999.0,64,-99.99,,,-99.99,385.000000,,2013-07-22 00:01:00,
2013-07-21 19:11:00,81.0,69.0,29.69,North,360,3.0,-999.0,66,-99.99,,,-99.99,315.000000,,2013-07-22 00:11:00,
2013-07-21 19:22:00,81.0,69.0,29.69,North,360,3.0,-999.0,66,-99.99,,,-99.99,294.000000,,2013-07-22 00:22:00,
2013-07-21 19:32:00,81.0,69.0,29.69,North,360,3.0,-999.0,66,-99.99,,,-99.99,294.000000,,2013-07-22 00:32:00,
2013-07-21 19:42:00,81.0,69.0,29.70,SE,128,3.0,-999.0,66,-99.99,,,-99.99,214.000000,,2013-07-22 00:42:00,
2013-07-21 19:52:00,81.0,69.0,29.70,North,360,2.0,-999.0,68,-99.99,,,-99.99,116.000000,,2013-07-22 00:52:00,
2013-07-21 20:02:00,81.0,69.0,29.70,North,360,2.0,-999.0,68,-99.99,,,-99.99,116.000000,,2013-07-22 01:02:00,
2013-07-21 20:11:00,80.0,69.0,29.69,North,360,1.0,-999.0,70,-99.99,,,-99.99,51.000000,,2013-07-22 01:11:00,
2013-07-21 20:21:00,78.0,69.0,29.68,North,360,0.0,-999.0,73,-99.99,,,-99.99,42.000000,,2013-07-22 01:21:00,
2013-07-21 20:32:00,78.0,69.0,29.68,North,360,0.0,-999.0,73,-99.99,,,-99.99,42.000000,,2013-07-22 01:32:00,
2013-07-21 20:42:00,77.0,68.0,29.68,North,360,1.0,-999.0,74,-99.99,,,-99.99,32.000000,,2013-07-22 01:42:00,
2013-07-21 20:52:00,77.0,68.0,29.68,North,360,1.0,-999.0,75,-99.99,,,-99.99,14.000000,,2013-07-22 01:52:00,
2013-07-21 21:02:00,77.0,68.0,29.68,North,360,1.0,-999.0,75,-99.99,,,-99.99,14.000000,,2013-07-22 02:02:00,
2013-07-21 21:11:00,76.0,68.0,29.67,North,360,4.0,-999.0,77,-99.99,,,-99.99,5.000000,,2013-07-22 02:11:00,
2013-07-21 21:22:00,75.0,68.0,29.67,North,360,2.0,-999.0,79,-99.99,,,-99.99,0.000000,,2013-07-22 02:22:00,
2013-07-21 21:32:00,75.0,68.0,29.67,North,360,2.0,-999.0,79,-99.99,,,-99.99,0.000000,,2013-07-22 02:32:00,
2013-07-21 21:43:00,75.0,68.0,29.67,North,360,4.0,-999.0,78,-99.99,,,-99.99,0.000000,,2013-07-22 02:43:00,
2013-07-21 21:52:00,75.0,68.0,29.67,North,360,4.0,-999.0,79,-99.99,,,-99.99,0.000000,,2013-07-22 02:52:00,
2013-07-21 22:01:00,75.0,68.0,29.67,North,360,4.0,-999.0,79,-99.99,,,-99.99,0.000000,,2013-07-22 03:01:00,
2013-07-21 22:12:00,74.0,67.0,29.68,North,360,3.0,-999.0,79,-99.99,,,-99.99,0.000000,,2013-07-22 03:12:00,
2013-07-21 22:22:00,74.0,67.0,29.68,SE,129,5.0,-999.0,80,-99.99,,,-99.99,0.000000,,2013-07-22 03:22:00,
2013-07-21 22:33:00,74.0,67.0,29.68,SE,129,5.0,-999.0,80,-99.99,,,-99.99,0.000000,,2013-07-22 03:33:00,
2013-07-21 22:43:00,73.0,67.0,29.67,North,360,2.0,-999.0,82,-99.99,,,-99.99,0.000000,,2013-07-22 03:43:00,
2013-07-21 22:53:00,73.0,67.0,29.67,North,360,2.0,-999.0,82,-99.99,,,-99.99,0.000000,,2013-07-22 03:53:00,
2013-07-21 23:01:00,73.0,68.0,29.67,SE,130,6.0,-999.0,83,-99.99,,,-99.99,0.000000,,2013-07-22 04:01:00,
2013-07-21 23:12:00,72.0,67.0,29.65,North,360,6.0,-999.0,83,-99.99,,,-99.99,0.000000,,2013-07-22 04:12:00,
2013-07-21 23:22:00,72.0,67.0,29.65,North,360,6.0,-999.0,83,-99.99,,,-99.99,0.000000,,2013-07-22 04:22:00,
2013-07-21 23:33:00,72.0,67.0,29.66,SE,138,7.0,-999.0,83,-99.99,,,-99.99,0.000000,,2013-07-22 04:33:00,
2013-07-21 23:43:00,72.0,66.0,29.65,SE,136,5.0,-999.0,82,-99.99,,,-99.99,0.000000,,2013-07-22 04:43:00,